^^
Datos históricos de la estación: Murcia-Puente Tocinos
Diario Informe para Diciembre 31, 2019 Unidades:  Ingés    Métrico   Ambas
Diario Semanal Mensual Anual
  Máxima: Mínima: Promedio:
Temperatura: 56.7 °F 42.1 °F 48.7 °F
Punto de rocio: 48 °F 39 °F 43.9 °F
Humedad: 90% 71% 84%
Velocidad viento: 5.9mph 0mph 3.3mph
Racha viento: 10mph - -
Viento- - SSE
Presión: 30.5 in 30.4 in -
Precipitación: 0 in    
 
 
Tabla de datos para Diciembre 31, 2019
Hora Temperatura Punto de rocio Presión Viento Velocidad viento Racha viento Humedad Intensidad lluvia(por hora) Nubes
00:04 48 °F 43.9 °F 30.5 in Calm     86% 0 in
00:09 47.8 °F 43.9 °F 30.5 in Calm   1.8 mph 86% 0 in
00:14 47.7 °F 43.7 °F 30.5 in Calm   2.3 mph 86% 0 in
00:19 47.7 °F 43.7 °F 30.5 in Calm   2.3 mph 86% 0 in
00:24 47.7 °F 43.9 °F 30.5 in Calm   2 mph 86.8% 0 in
00:29 47.5 °F 43.7 °F 30.5 in Calm     86.9% 0 in
00:34 47.5 °F 43.7 °F 30.5 in Calm   4 mph 86.8% 0 in
00:39 47.3 °F 43.5 °F 30.5 in Calm   5 mph 87% 0 in
00:44 47.1 °F 43.3 °F 30.5 in SE 1 mph 5.2 mph 87% 0 in
00:49 46.9 °F 43.3 °F 30.5 in SE 1.8 mph 5 mph 87% 0 in
00:54 46.9 °F 43.3 °F 30.5 in SE 1.9 mph 3.1 mph 87% 0 in
00:59 46.8 °F 43.2 °F 30.5 in SE 2 mph 3.5 mph 87% 0 in
01:04 46.8 °F 43 °F 30.5 in SSE 2 mph 3 mph 87% 0 in
01:09 46.6 °F 43 °F 30.5 in SSE 2 mph 3 mph 87% 0 in
01:14 46.6 °F 42.8 °F 30.4 in SSE 1.6 mph 2.3 mph 87% 0 in
01:19 46.4 °F 43 °F 30.4 in SSE 1.4 mph 2.4 mph 87.8% 0 in
01:24 46.2 °F 43 °F 30.4 in SSE 0.5 mph 2.9 mph 88% 0 in
01:29 46.2 °F 43 °F 30.4 in Calm   3.5 mph 88% 0 in
01:34 46.2 °F 43 °F 30.4 in Sur 1.1 mph 4.6 mph 88% 0 in
01:39 46.2 °F 43 °F 30.4 in SSE 1.8 mph 5 mph 88% 0 in
01:44 46.2 °F 43 °F 30.4 in Sur 2.2 mph 5 mph 88% 0 in
01:49 46.2 °F 42.8 °F 30.4 in Sur 2.4 mph 4.6 mph 88% 0 in
01:54 46 °F 42.8 °F 30.4 in SSE 2.7 mph 5 mph 88% 0 in
01:59 46 °F 42.6 °F 30.4 in Sur 2.9 mph 5.2 mph 88% 0 in
02:04 46 °F 42.6 °F 30.4 in Sur 2.9 mph 5.8 mph 88% 0 in
02:09 46 °F 42.6 °F 30.4 in SSO 2.9 mph 6 mph 88% 0 in
02:14 45.9 °F 42.6 °F 30.4 in SSO 3.3 mph 5 mph 88% 0 in
02:19 45.9 °F 42.4 °F 30.4 in Sur 3.6 mph 5 mph 88% 0 in
02:24 45.9 °F 42.4 °F 30.4 in SSE 3.3 mph 6.9 mph 88% 0 in
02:29 45.9 °F 42.4 °F 30.4 in SSE 3.1 mph 7 mph 88% 0 in
02:34 45.7 °F 42.3 °F 30.4 in SSE 3.4 mph 5.2 mph 88% 0 in
02:39 45.3 °F 42.1 °F 30.4 in Sur 3.6 mph 5 mph 88% 0 in
02:44 45.3 °F 42.1 °F 30.4 in Sur 3.3 mph 5 mph 88% 0 in
02:49 45.3 °F 42.1 °F 30.4 in SSO 3.1 mph 5 mph 88% 0 in
02:54 45.3 °F 42.1 °F 30.4 in SO 3 mph 5.2 mph 88% 0 in
02:59 45.3 °F 42.1 °F 30.4 in SO 2.9 mph 5.2 mph 88% 0 in
03:04 45.3 °F 42.1 °F 30.4 in SO 3 mph 5 mph 88% 0 in
03:09 45.3 °F 42.1 °F 30.4 in SO 3.1 mph 5 mph 88% 0 in
03:14 45.3 °F 42.1 °F 30.4 in SO 2.7 mph 5 mph 88% 0 in
03:19 45.3 °F 41.9 °F 30.4 in SSO 2.4 mph 5 mph 88% 0 in
03:24 45.1 °F 41.9 °F 30.4 in SSO 2.7 mph 5.8 mph 88% 0 in
03:29 45.1 °F 41.9 °F 30.4 in SSO 2.9 mph 6 mph 88% 0 in
03:34 45.1 °F 41.9 °F 30.4 in SSO 3.4 mph 6 mph 88% 0 in
03:39 45.1 °F 41.9 °F 30.4 in SSO 3.6 mph 6 mph 88% 0 in
03:44 45.1 °F 41.7 °F 30.4 in SSO 3.6 mph 6 mph 87.3% 0 in
03:49 45.1 °F 41.5 °F 30.4 in SSE 3.6 mph 5.8 mph 87% 0 in
03:54 45.1 °F 41.5 °F 30.4 in Sur 3.3 mph 6 mph 87% 0 in
03:59 45 °F 41.4 °F 30.4 in Sur 3.1 mph 6 mph 87% 0 in
04:04 45 °F 41.2 °F 30.4 in Sur 3.4 mph 6 mph 87% 0 in
04:09 44.8 °F 41.2 °F 30.4 in Sur 3.6 mph 6.9 mph 87% 0 in
04:14 44.8 °F 41 °F 30.4 in Sur 4 mph 7 mph 87% 0 in
04:19 44.4 °F 40.8 °F 30.4 in SSE 4.3 mph 7 mph 87% 0 in
04:24 44.2 °F 40.6 °F 30.4 in Sur 4.3 mph 7 mph 87% 0 in
04:29 44.1 °F 40.6 °F 30.4 in SSE 4.3 mph 7 mph 88% 0 in
04:34 43.7 °F 40.5 °F 30.4 in Sur 4.5 mph 8.1 mph 88% 0 in
04:39 43.5 °F 40.3 °F 30.4 in SSE 4.7 mph 8 mph 88.1% 0 in
04:44 43.5 °F 40.5 °F 30.4 in Sur 4.7 mph 7 mph 89% 0 in
04:49 43.3 °F 40.3 °F 30.4 in Sur 4.7 mph 8.5 mph 89% 0 in
04:54 43.3 °F 40.3 °F 30.4 in Sur 5 mph 9 mph 89% 0 in
04:59 43.3 °F 40.3 °F 30.4 in SSO 5.2 mph 8 mph 89% 0 in
05:04 43.5 °F 40.5 °F 30.4 in Sur 4.8 mph 7 mph 89% 0 in
05:09 43.5 °F 40.5 °F 30.4 in Sur 4.7 mph 7.4 mph 89% 0 in
05:14 43.5 °F 40.5 °F 30.4 in Sur 5 mph 7.4 mph 89% 0 in
05:19 43.5 °F 40.3 °F 30.4 in Sur 5.2 mph 7 mph 88.2% 0 in
05:24 43.5 °F 40.3 °F 30.4 in Sur 4.9 mph 6.9 mph 88% 0 in
05:29 43.5 °F 40.3 °F 30.4 in SSO 4.7 mph 7 mph 88% 0 in
05:34 43.5 °F 40.3 °F 30.4 in Sur 4.7 mph 7 mph 88% 0 in
05:39 43.5 °F 40.1 °F 30.4 in Sur 4.7 mph 7 mph 88% 0 in
05:44 43.3 °F 39.9 °F 30.4 in Sur 4.5 mph 6 mph 88% 0 in
05:49 43.3 °F 39.9 °F 30.4 in Sur 4.3 mph 6.4 mph 88% 0 in
05:54 43.3 °F 39.9 °F 30.4 in Sur 4.5 mph 7 mph 88% 0 in
05:59 43.2 °F 39.7 °F 30.4 in Sur 4.7 mph 7.4 mph 88% 0 in
06:04 43.2 °F 39.7 °F 30.4 in Sur 4.7 mph 7 mph 88% 0 in
06:09 43.2 °F 39.7 °F 30.4 in Sur 4.7 mph 7 mph 88% 0 in
06:14 43 °F 39.7 °F 30.4 in Sur 4.7 mph 7 mph 88% 0 in
06:19 43 °F 39.9 °F 30.4 in SSO 4.7 mph 7 mph 88.9% 0 in
06:24 43.2 °F 40.1 °F 30.5 in SSO 4.7 mph 7 mph 89% 0 in
06:29 43.3 °F 40.3 °F 30.5 in SSO 4.7 mph 7 mph 89% 0 in
06:34 43.3 °F 40.5 °F 30.5 in SSO 4.5 mph 6.9 mph 89% 0 in
06:39 43.5 °F 40.6 °F 30.5 in SO 4.3 mph 7 mph 89% 0 in
06:44 43.9 °F 40.6 °F 30.5 in SSO 4.3 mph 7.4 mph 88.3% 0 in
06:49 43.9 °F 40.6 °F 30.5 in SSO 4.3 mph 7.4 mph 88% 0 in
06:54 44.1 °F 40.6 °F 30.5 in Sur 4.5 mph 7 mph 87.6% 0 in
06:59 44.1 °F 40.5 °F 30.5 in Sur 4.7 mph 6 mph 87% 0 in
07:04 43.9 °F 40.3 °F 30.5 in SSO 3.7 mph 5.2 mph 87% 0 in
07:09 43.7 °F 40.1 °F 30.5 in SSO 3.1 mph 5 mph 87% 0 in
07:14 43.5 °F 39.9 °F 30.5 in SSO 3.1 mph 5.8 mph 87% 0 in
07:19 43.5 °F 39.9 °F 30.5 in SSO 3.1 mph 6 mph 87% 0 in
07:24 43.5 °F 39.9 °F 30.5 in Sur 3.1 mph 6 mph 87% 0 in
07:29 43.3 °F 39.7 °F 30.5 in Sur 3.1 mph 6 mph 87% 0 in
07:34 43.2 °F 39.6 °F 30.5 in Sur 3.1 mph 5 mph 87% 0 in
07:39 43.2 °F 39.6 °F 30.5 in Sur 3.1 mph 5 mph 87% 0 in
07:44 43.2 °F 39.6 °F 30.5 in SSE 3 mph 5 mph 87% 0 in
07:49 42.8 °F 39.2 °F 30.5 in SE 2.9 mph 5.9 mph 87% 0 in
07:54 42.6 °F 39 °F 30.5 in SSE 3.5 mph 6.2 mph 87.4% 0 in
07:59 42.4 °F 39 °F 30.5 in SSE 4 mph 6 mph 88% 0 in
08:04 42.4 °F 39 °F 30.5 in SSE 3.7 mph 6 mph 88% 0 in
08:09 42.3 °F 39 °F 30.5 in SSE 3.6 mph 6.9 mph 88.6% 0 in
08:14 42.1 °F 39 °F 30.5 in Sur 4 mph 7 mph 89% 0 in
08:19 42.1 °F 39.2 °F 30.5 in Sur 4.3 mph 6 mph 89.5% 0 in
08:24 42.1 °F 39.4 °F 30.5 in SSO 3.9 mph 5.2 mph 90% 0 in
08:29 42.3 °F 39.4 °F 30.5 in SO 3.6 mph 5.8 mph 90% 0 in
08:34 42.3 °F 39.6 °F 30.5 in SO 3.3 mph 6 mph 90% 0 in
08:39 42.4 °F 39.7 °F 30.5 in SSO 3.1 mph 6.2 mph 90% 0 in
08:44 42.6 °F 39.9 °F 30.5 in Sur 3.1 mph 6.2 mph 90% 0 in
08:49 42.6 °F 39.7 °F 30.5 in SSE 3.1 mph 6 mph 89% 0 in
08:54 42.8 °F 39.7 °F 30.5 in SSE 3.7 mph 6 mph 89% 0 in
08:59 42.8 °F 39.7 °F 30.5 in SSE 4 mph 5.9 mph 89% 0 in
09:04 42.6 °F 39.6 °F 30.5 in SSE 3.7 mph 6 mph 89% 0 in
09:09 42.6 °F 39.6 °F 30.5 in Sur 3.6 mph 7.4 mph 89% 0 in
09:14 42.6 °F 39.6 °F 30.5 in SSE 4 mph 7.4 mph 89% 0 in
09:19 42.6 °F 39.6 °F 30.5 in Sur 4.3 mph 7 mph 89% 0 in
09:24 42.6 °F 39.6 °F 30.5 in Sur 4.3 mph 6 mph 89% 0 in
09:29 42.8 °F 39.9 °F 30.5 in SSE 4.3 mph 6.9 mph 89% 0 in
09:34 43 °F 40.1 °F 30.5 in Sur 4.1 mph 7 mph 89% 0 in
09:39 43.2 °F 40.1 °F 30.5 in SSE 4 mph 6 mph 89% 0 in
09:44 43.3 °F 40.5 °F 30.5 in Sur 3.8 mph 5.9 mph 89% 0 in
09:49 43.5 °F 40.5 °F 30.5 in Sur 3.6 mph 6.9 mph 88.5% 0 in
09:54 43.9 °F 40.5 °F 30.5 in Sur 4 mph 7.4 mph 88% 0 in
09:59 44.1 °F 40.6 °F 30.5 in Sur 4.3 mph 7 mph 88% 0 in
10:04 44.2 °F 40.8 °F 30.5 in Sur 4.3 mph 7 mph 87.7% 0 in
10:09 44.6 °F 41 °F 30.5 in Sur 4.3 mph 7 mph 87% 0 in
10:14 45 °F 41.2 °F 30.5 in Sur 4.1 mph 6.2 mph 86.6% 0 in
10:19 45.1 °F 41.2 °F 30.5 in Sur 4 mph 6.9 mph 86% 0 in
10:24 45.5 °F 41.4 °F 30.5 in Sur 4.5 mph 8.1 mph 85.1% 0 in
10:29 45.9 °F 41.5 °F 30.5 in SSO 4.7 mph 8.1 mph 85% 0 in
10:34 46.2 °F 41.7 °F 30.5 in Sur 4.7 mph 8.1 mph 84.3% 0 in
10:39 46.4 °F 41.5 °F 30.5 in SSO 4.7 mph 8.1 mph 83% 0 in
10:44 46.8 °F 41.9 °F 30.5 in Sur 4.7 mph 8 mph 83.2% 0 in
10:49 46.9 °F 41.9 °F 30.5 in SSO 4.7 mph 8.1 mph 82.7% 0 in
10:54 47.1 °F 41.9 °F 30.5 in Sur 4.7 mph 8 mph 82% 0 in
10:59 47.3 °F 42.3 °F 30.5 in SSO 4.7 mph 7 mph 82% 0 in
11:04 47.7 °F 42.4 °F 30.5 in SSO 4.4 mph 7.4 mph 82% 0 in
11:09 47.8 °F 42.6 °F 30.5 in SO 4.3 mph 8.7 mph 82% 0 in
11:14 48 °F 42.8 °F 30.5 in SO 4.5 mph 9 mph 82% 0 in
11:19 48 °F 42.8 °F 30.5 in SO 4.7 mph 9.2 mph 81.9% 0 in
11:24 48.2 °F 43 °F 30.5 in SO 4 mph 9 mph 81.9% 0 in
11:29 48.4 °F 43 °F 30.5 in SSO 3.6 mph 9.2 mph 82% 0 in
11:34 48.4 °F 43.2 °F 30.5 in SSO 4.3 mph 9.2 mph 82% 0 in
11:39 48.6 °F 43.2 °F 30.5 in SSO 4.7 mph 9.2 mph 82% 0 in
11:44 48.7 °F 43.5 °F 30.5 in SSO 4.7 mph 8.5 mph 82% 0 in
11:49 48.9 °F 43.7 °F 30.5 in SSO 4.7 mph 9 mph 82% 0 in
11:54 49.3 °F 44.1 °F 30.5 in Sur 5.5 mph 9 mph 82% 0 in
11:59 49.6 °F 44.6 °F 30.5 in Sur 5.9 mph 9.7 mph 82.8% 0 in
12:04 49.6 °F 44.8 °F 30.5 in Sur 5.6 mph 10 mph 83% 0 in
12:09 50 °F 44.8 °F 30.5 in Sur 5.4 mph 9.2 mph 82.3% 0 in
12:14 50.2 °F 45 °F 30.5 in SSE 5.4 mph 9.2 mph 82% 0 in
12:19 50.4 °F 44.8 °F 30.5 in Sur 5.4 mph 9 mph 81.5% 0 in
12:24 50.2 °F 44.8 °F 30.5 in SSO 5.4 mph 9.7 mph 81.5% 0 in
12:29 50.4 °F 45 °F 30.5 in SSO 5.4 mph 10 mph 82% 0 in
12:34 50.5 °F 45.1 °F 30.5 in Sur 5.4 mph 9.2 mph 82% 0 in
12:39 50.5 °F 45.1 °F 30.5 in SSO 5.4 mph 9 mph 82% 0 in
12:44 50.7 °F 45.3 °F 30.5 in Sur 5.4 mph 8.5 mph 82% 0 in
12:49 50.9 °F 45.5 °F 30.5 in SSO 5.4 mph 9 mph 81.3% 0 in
12:54 51.3 °F 45.7 °F 30.5 in Sur 5.3 mph 8.1 mph 81.5% 0 in
12:59 51.6 °F 45.7 °F 30.5 in Sur 5.2 mph 8 mph 80.4% 0 in
13:04 51.8 °F 45.9 °F 30.5 in SSO 4.6 mph 9.2 mph 79.9% 0 in
13:09 52 °F 45.9 °F 30.5 in Sur 4.3 mph 9 mph 79.6% 0 in
13:14 52.2 °F 46 °F 30.5 in Sur 4.5 mph 8.1 mph 79.4% 0 in
13:19 52.3 °F 46 °F 30.5 in SSE 4.7 mph 9.2 mph 78.6% 0 in
13:24 52.5 °F 45.9 °F 30.5 in SSE 5 mph 9 mph 78% 0 in
13:29 52.9 °F 46 °F 30.5 in SSE 5.2 mph 8.1 mph 77.5% 0 in
13:34 53.1 °F 46 °F 30.5 in SE 5.2 mph 9.2 mph 77.1% 0 in
13:39 52.9 °F 46 °F 30.5 in Sur 5.2 mph 9 mph 77.6% 0 in
13:44 52.5 °F 45.9 °F 30.5 in SSE 5.3 mph 8.5 mph 78% 0 in
13:49 52.3 °F 45.9 °F 30.5 in SE 5.4 mph 9 mph 78.8% 0 in
13:54 52.3 °F 45.9 °F 30.5 in SE 5.4 mph 9 mph 79% 0 in
13:59 52.5 °F 46.2 °F 30.5 in SSE 5.4 mph 7.4 mph 79.1% 0 in
14:04 52.7 °F 46.4 °F 30.5 in SSE 5 mph 7 mph 79% 0 in
14:09 53.1 °F 46.6 °F 30.5 in SSE 4.7 mph 6.2 mph 78.6% 0 in
14:14 53.2 °F 46.6 °F 30.5 in SSE 4.5 mph 6.2 mph 78% 0 in
14:19 53.6 °F 46.8 °F 30.5 in Sur 4.3 mph 6.9 mph 77.4% 0 in
14:24 54 °F 46.8 °F 30.5 in Sur 3.9 mph 7 mph 76.8% 0 in
14:29 54.1 °F 46.8 °F 30.4 in SSO 3.6 mph 6 mph 76% 0 in
14:34 54.1 °F 46.8 °F 30.4 in Sur 3.3 mph 6 mph 75.9% 0 in
14:39 54.3 °F 46.8 °F 30.4 in SO 3.1 mph 5 mph 75.3% 0 in
14:44 54.7 °F 46.8 °F 30.4 in SSE 3 mph 5 mph 74.7% 0 in
14:49 54.9 °F 46.9 °F 30.4 in Sur 2.9 mph 5.2 mph 74.4% 0 in
14:54 55 °F 46.9 °F 30.4 in Sur 2.9 mph 5 mph 74% 0 in
14:59 55 °F 46.9 °F 30.4 in SE 2.9 mph 3.5 mph 74% 0 in
15:04 55.2 °F 46.9 °F 30.4 in SSE 2.2 mph 3.1 mph 73.4% 0 in
15:09 55.6 °F 47.1 °F 30.4 in SO 1.8 mph 3.5 mph 73% 0 in
15:14 55.8 °F 47.1 °F 30.4 in Oeste 1.6 mph 3.5 mph 72.7% 0 in
15:19 55.9 °F 47.1 °F 30.4 in Sur 1.4 mph 3.6 mph 72.3% 0 in
15:24 56.1 °F 47.3 °F 30.4 in SSE 1.4 mph 4 mph 72% 0 in
15:29 56.5 °F 47.3 °F 30.4 in NE 1.4 mph 4.6 mph 71.3% 0 in
15:34 56.3 °F 46.9 °F 30.4 in NE 1.8 mph 5 mph 71% 0 in
15:39 56.5 °F 47.5 °F 30.4 in NNE 2 mph 3 mph 71.9% 0 in
15:44 56.5 °F 47.5 °F 30.4 in NNE 0.7 mph 2 mph 71.6% 0 in
15:49 56.5 °F 47.5 °F 30.4 in Calm   2.9 mph 71.5% 0 in
15:54 56.7 °F 47.3 °F 30.4 in NNO 0.9 mph 4.7 mph 71% 0 in
15:59 56.5 °F 47.3 °F 30.4 in NE 1.4 mph 5 mph 71.2% 0 in
16:04 56.5 °F 47.7 °F 30.4 in ENE 2 mph 5 mph 72% 0 in
16:09 56.5 °F 47.7 °F 30.4 in ENE 2.4 mph 4.6 mph 72% 0 in
16:14 56.5 °F 47.7 °F 30.4 in Este 2.4 mph 5 mph 72% 0 in
16:19 56.5 °F 47.7 °F 30.4 in ENE 2.4 mph 5.8 mph 72% 0 in
16:24 56.5 °F 47.7 °F 30.4 in ENE 2.7 mph 6.2 mph 72% 0 in
16:29 56.7 °F 47.7 °F 30.4 in NNE 2.9 mph 6 mph 72% 0 in
16:34 56.7 °F 47.8 °F 30.4 in NE 2.3 mph 5.8 mph 72.2% 0 in
16:39 56.7 °F 47.7 °F 30.4 in NE 2 mph 6 mph 72% 0 in
16:44 56.7 °F 47.7 °F 30.4 in NNE 2.5 mph 5 mph 72% 0 in
16:49 56.7 °F 47.7 °F 30.4 in NNE 2.9 mph 5 mph 72% 0 in
16:54 56.7 °F 47.8 °F 30.4 in NE 2.5 mph 5 mph 72% 0 in
16:59 56.7 °F 47.7 °F 30.4 in NNE 2.4 mph 5 mph 72% 0 in
17:04 56.7 °F 48 °F 30.4 in NE 2.7 mph 5 mph 72.8% 0 in
17:09 56.7 °F 48 °F 30.4 in NE 2.9 mph 6.2 mph 73% 0 in
17:14 56.5 °F 47.8 °F 30.4 in NE 3.4 mph 6 mph 73% 0 in
17:19 56.5 °F 47.8 °F 30.4 in NE 3.6 mph 5 mph 73% 0 in
17:24 56.3 °F 47.8 °F 30.4 in NNE 3.3 mph 5 mph 73.3% 0 in
17:29 56.1 °F 48 °F 30.4 in NE 3.1 mph 5 mph 74% 0 in
17:34 56.1 °F 47.8 °F 30.4 in NNE 2.7 mph 5 mph 74% 0 in
17:39 56.1 °F 47.8 °F 30.4 in NNE 2.4 mph 5 mph 74% 0 in
17:44 55.9 °F 48 °F 30.4 in NNE 2.7 mph 5 mph 74.8% 0 in
17:49 55.8 °F 48 °F 30.4 in NNE 2.9 mph 5 mph 75% 0 in
17:54 55.8 °F 48 °F 30.4 in NNE 2.2 mph 5.2 mph 75% 0 in
17:59 55.6 °F 48 °F 30.4 in NE 1.8 mph 5 mph 76% 0 in
18:04 55.4 °F 48 °F 30.4 in NE 2.5 mph 5 mph 76% 0 in
18:09 55.2 °F 47.8 °F 30.4 in NE 2.9 mph 5 mph 76% 0 in
18:14 55.2 °F 48 °F 30.4 in Este 2.2 mph 4 mph 76.7% 0 in
18:19 55 °F 48 °F 30.4 in NE 1.8 mph 4.7 mph 77% 0 in
18:24 55 °F 48 °F 30.4 in NE 2.6 mph 5.9 mph 77% 0 in
18:29 55 °F 48 °F 30.4 in ENE 3.1 mph 6 mph 77% 0 in
18:34 55 °F 48 °F 30.4 in ENE 3.1 mph 5 mph 77% 0 in
18:39 55 °F 48 °F 30.4 in ENE 3.1 mph 5 mph 77% 0 in
18:44 55 °F 48 °F 30.4 in ENE 2.4 mph 5 mph 77% 0 in
18:49 55 °F 48 °F 30.4 in ENE 2 mph 5 mph 77% 0 in
18:54 55 °F 48 °F 30.4 in ENE 1.9 mph 4 mph 77% 0 in
18:59 54.9 °F 47.8 °F 30.4 in ENE 1.8 mph 6.2 mph 77% 0 in
19:04 54.9 °F 47.8 °F 30.4 in NE 2.5 mph 6 mph 77.1% 0 in
19:09 54.7 °F 48 °F 30.4 in NNE 2.9 mph 5 mph 78% 0 in
19:14 54.5 °F 47.7 °F 30.4 in North 2.9 mph 5.2 mph 78% 0 in
19:19 54 °F 47.3 °F 30.4 in NNO 2.9 mph 5 mph 78.2% 0 in
19:24 53.4 °F 47.1 °F 30.5 in NO 2.9 mph 5 mph 79.2% 0 in
19:29 53.1 °F 47.1 °F 30.5 in North 2.9 mph 4.6 mph 80.2% 0 in
19:34 52.9 °F 47.3 °F 30.5 in North 2.9 mph 5 mph 81.5% 0 in
19:39 52.5 °F 47.1 °F 30.5 in North 2.9 mph 5.2 mph 82% 0 in
19:44 52.3 °F 47.3 °F 30.5 in NNE 2.6 mph 5 mph 82.8% 0 in
19:49 52.3 °F 47.3 °F 30.5 in NNE 2.4 mph 5 mph 83% 0 in
19:54 52.2 °F 47.1 °F 30.5 in NNE 2.4 mph 4 mph 83% 0 in
19:59 52.2 °F 47.1 °F 30.5 in NNE 2.4 mph 4.6 mph 83.3% 0 in
20:04 52 °F 47.3 °F 30.5 in ENE 2.4 mph 5 mph 84% 0 in
20:09 52 °F 47.3 °F 30.5 in ESE 2.4 mph 5.2 mph 84% 0 in
20:14 52 °F 47.3 °F 30.5 in ESE 2.7 mph 5 mph 84% 0 in
20:19 52 °F 47.3 °F 30.5 in ESE 2.9 mph 5 mph 84% 0 in
20:24 52 °F 47.3 °F 30.5 in ESE 2.4 mph 5 mph 84% 0 in
20:29 51.8 °F 46.9 °F 30.5 in ESE 2 mph 2.4 mph 84% 0 in
20:34 51.6 °F 46.9 °F 30.5 in ESE 0.7 mph 2 mph 84% 0 in
20:39 51.4 °F 46.8 °F 30.5 in Calm   4.6 mph 84% 0 in
20:44 51.3 °F 46.6 °F 30.5 in OSO 1.1 mph 5 mph 84.1% 0 in
20:49 50.7 °F 46.6 °F 30.5 in OSO 1.8 mph 3.6 mph 85% 0 in
20:54 50.5 °F 46.2 °F 30.5 in Oeste 1.6 mph 4.6 mph 85.1% 0 in
20:59 50.4 °F 46.2 °F 30.5 in Oeste 1.4 mph 5 mph 86% 0 in
21:04 50.4 °F 46.2 °F 30.5 in Oeste 2.1 mph 5 mph 86% 0 in
21:09 50.2 °F 46.2 °F 30.5 in Oeste 2.4 mph 5 mph 86% 0 in
21:14 50.2 °F 46.4 °F 30.5 in OSO 2.1 mph 4 mph 86.7% 0 in
21:19 50.2 °F 46.6 °F 30.5 in OSO 1.8 mph 4 mph 87% 0 in
21:24 50.2 °F 46.6 °F 30.5 in OSO 1.8 mph 3 mph 87% 0 in
21:29 50.2 °F 46.2 °F 30.5 in SE 1.8 mph 3 mph 86.2% 0 in
21:34 50.2 °F 46.4 °F 30.5 in SE 1.6 mph 4.6 mph 86.7% 0 in
21:39 50 °F 46.4 °F 30.5 in Sur 1.4 mph 5 mph 87% 0 in
21:44 50 °F 46.2 °F 30.5 in SSO 2.4 mph 5.8 mph 86.7% 0 in
21:49 50 °F 46 °F 30.5 in Sur 2.9 mph 6 mph 86% 0 in
21:54 49.8 °F 45.9 °F 30.5 in Sur 2.6 mph 5 mph 86% 0 in
21:59 49.6 °F 45.7 °F 30.5 in SSE 2.4 mph 5 mph 86% 0 in
22:04 49.6 °F 45.5 °F 30.5 in SSE 2.4 mph 5 mph 86% 0 in
22:09 49.5 °F 45.3 °F 30.5 in SSE 2.4 mph 3 mph 86% 0 in
22:14 49.3 °F 45.1 °F 30.5 in SSE 1.8 mph 2 mph 86% 0 in
22:19 48.9 °F 45 °F 30.5 in Sur 1.4 mph 5.2 mph 86% 0 in
22:24 48.7 °F 45 °F 30.5 in Sur 1.7 mph 5.2 mph 86.5% 0 in
22:29 48.6 °F 45 °F 30.5 in Sur 1.8 mph 5 mph 87% 0 in
22:34 48.4 °F 44.6 °F 30.5 in SSE 2.6 mph 6.4 mph 87% 0 in
22:39 47.8 °F 44.4 °F 30.5 in SSE 3.1 mph 7 mph 87.3% 0 in
22:44 47.8 °F 44.4 °F 30.5 in SSE 4.3 mph 9.2 mph 88% 0 in
22:49 47.7 °F 44.4 °F 30.5 in Sur 5.2 mph 9 mph 88% 0 in
22:54 47.7 °F 44.4 °F 30.5 in Sur 4.9 mph 7 mph 88.1% 0 in
22:59 47.7 °F 44.6 °F 30.5 in SSO 4.7 mph 6.9 mph 89% 0 in
23:04 47.7 °F 44.6 °F 30.5 in SSO 4.4 mph 7 mph 89% 0 in
23:09 47.7 °F 44.6 °F 30.5 in SO 4.3 mph 7 mph 89% 0 in
23:14 47.7 °F 44.6 °F 30.5 in SO 3.9 mph 6 mph 89% 0 in
23:19 47.7 °F 44.6 °F 30.5 in OSO 3.6 mph 6 mph 89% 0 in
23:24 47.7 °F 44.6 °F 30.5 in SO 2.9 mph 5 mph 89% 0 in
23:29 47.7 °F 44.2 °F 30.5 in SSO 2.4 mph 5 mph 88.1% 0 in
23:34 47.5 °F 44.1 °F 30.5 in SSO 2.7 mph 5.2 mph 88% 0 in
23:39 47.5 °F 44.1 °F 30.5 in Sur 2.9 mph 5 mph 88% 0 in
23:44 47.3 °F 44.1 °F 30.5 in SSE 2.9 mph 5 mph 88% 0 in
23:49 47.1 °F 43.7 °F 30.5 in SSE 2.9 mph 5.8 mph 88% 0 in
23:54 46.9 °F 43.5 °F 30.5 in SSE 3.4 mph 6.9 mph 88% 0 in
23:59 46.8 °F 43.3 °F 30.5 in Sur 3.6 mph 7 mph 88% 0 in
Murcia-Puente Tocinos, Espa?a
Compliments of Weather Underground - 3 mb

La estación de MeteoMurcia.com, publica sus datos en los siguientes proyectos:

Weather Underground PWS IMURCIAP2 Meteoclimatic www.awekas.at

W3Counter
Web Analytics